070723 071  0.3-  0.2-    070813 H06  0.0   0.4-    070909 945  0.2+  0.3-  

070723 071  1.0+  0.0     070814 A01  0.2-  0.2-    070910 900  0.6-  0.1+  

070723 071  0.8+  0.3-    070814 A01  0.3-  0.3-    070910 900  0.8-  0.1-  

070724 071  1.0+  0.1-    070814 A01  0.0   0.1-    070911 213  0.1-  0.1+  

070724 071  0.7+  0.1-    070814 071  0.4+  0.4-    070911 213  0.2-  0.8+  

070724 071  1.0-  0.3+    070814 071  0.4-  0.7-    070911 213  0.0   0.0   



NAKANO

         **** Don't distribute anyone except personal use only ****

                (C) Copyright 2007 OAA/ComputingSection

write mail from CFAD0::NAKANO on 2007-09-16 02:42:41(JST).

 





    C/2007 H1 (McNaught)

T 2007 June 21.64055 TT                                 Nakano

q   2.6029399            (2000.0)            P               Q

                   Peri.  183.36811     +0.87361885     +0.47560758

                   Node   147.58286     -0.44185121     +0.86390885

e   1.0            Incl.   11.06609     -0.20385684     +0.16570737

From 30 observations 2007 Apr. 17-28.



NAKANO

         **** Don't distribute anyone except personal use only ****

                (C) Copyright 2007 OAA/ComputingSection

write mail from CFAD0::NAKANO on 2007-05-04 04:01:44(JST).



◎C/2007 H1の軌道と予報位置



 上尾の門田健一氏は,明け方の低空にあるこの彗星を捕らえました.氏のCCD

全光度は,16.0等でした.



    C/2007 H1 (McNaught)

T 2007 June 19.14606 TT                                 Nakano

q   2.6079748            (2000.0)            P               Q

                   Peri.  182.50006     +0.86651613     +0.48848381

                   Node   147.60594     -0.45457215     +0.85720531

e   1.0            Incl.   11.04449     -0.20618914     +0.16304177

From 28 observations 2007 Apr. 17-25.



2007/        α  (2000) δ      △      r    Daily motion  Elong. Phase    m1   天文薄明開始時

 28h JST    h  m       。  ,        AU      AU      ,     。     。      。      等     h。    A 。 

Apr. 25   22 13.26  -08 15.1    2.976   2.671    25.9/ 75    62.9   19.6   15.6   +15.7  292.5

     26   22 14.95  -08 08.4    2.963   2.669    25.9/ 75    63.4   19.7   15.6   +15.9  292.6

     27   22 16.63  -08 01.6    2.951   2.667    25.8/ 75    63.9   19.8   15.6   +16.1  292.6

     28   22 18.31  -07 54.9    2.939   2.665    25.7/ 75    64.5   19.9   15.6   +16.3  292.7

     29   22 19.98  -07 48.3    2.926   2.662    25.7/ 75    65.0   20.1   15.6   +16.6  292.7

     30   22 21.65  -07 41.6    2.914   2.660    25.6/ 75    65.6   20.2   15.6   +16.8  292.8

May   1   22 23.31  -07 35.0    2.901   2.658    25.5/ 75    66.1   20.3   15.6   +17.0  292.8

      2   22 24.97  -07 28.3    2.889   2.656    25.4/ 75    66.7   20.4   15.5   +17.3  292.9

      3   22 26.62  -07 21.7    2.877   2.654    25.3/ 75    67.2   20.5   15.5   +17.5  292.9

      4   22 28.26  -07 15.2    2.864   2.652    25.3/ 75    67.8   20.6   15.5   +17.7  293.0

      5   22 29.90  -07 08.6    2.852   2.650    25.2/ 75    68.3   20.7   15.5   +18.0  293.1

      6   22 31.54  -07 02.1    2.840   2.648    25.1/ 75    68.9   20.8   15.5   +18.2  293.2

      7   22 33.17  -06 55.7    2.827   2.647    25.0/ 75    69.4   20.9   15.5   +18.5  293.2

      8   22 34.79  -06 49.2    2.815   2.645    24.9/ 75    70.0   21.0   15.5   +18.7  293.3

      9   22 36.40  -06 42.8    2.803   2.643    24.8/ 75    70.5   21.1   15.5   +19.0  293.4

     10   22 38.01  -06 36.4    2.790   2.641    24.7/ 75    71.1   21.2   15.4   +19.3  293.5

     11   22 39.62  -06 30.1    2.778   2.640    24.6/ 75    71.6   21.3   15.4   +19.5  293.6

     12   22 41.21  -06 23.8    2.766   2.638    24.5/ 75    72.2   21.4   15.4   +19.8  293.7

     13   22 42.80  -06 17.6    2.753   2.637    24.4/ 75    72.7   21.5   15.4   +20.1  293.8

     14   22 44.38  -06 11.4    2.741   2.635    24.3/ 75    73.3   21.6   15.4   +20.4  294.0

     15   22 45.96  -06 05.2    2.729   2.634    24.2/ 75    73.9   21.6   15.4   +20.6  294.1

     16   22 47.53  -05 59.1    2.717   2.632    24.1/ 75    74.4   21.7   15.4   +20.9  294.2

     17   22 49.09  -05 53.1    2.704   2.631    23.9/ 76    75.0   21.8   15.4   +21.2  294.4

     18   22 50.64  -05 47.1    2.692   2.629    23.8/ 76    75.6   21.9   15.3   +21.5  294.5

     19   22 52.19  -05 41.2    2.680   2.628    23.7/ 76    76.1   21.9   15.3   +21.9  294.7

     20   22 53.73  -05 35.3    2.668   2.627    23.6/ 76    76.7   22.0   15.3   +22.2  294.8

     21   22 55.26  -05 29.5    2.656   2.625    23.5/ 76    77.3   22.1   15.3   +22.5  295.0

     22   22 56.78  -05 23.7    2.643   2.624    23.3/ 76    77.9   22.2   15.3   +22.8  295.2

     23   22 58.30  -05 18.0    2.631   2.623    23.2/ 76    78.4   22.2   15.3   +23.2  295.4

     24   22 59.80  -05 12.4    2.619   2.622    23.1/ 76    79.0   22.3   15.3   +23.5  295.6

     25   23 01.30  -05 06.9    2.607   2.621    22.9/ 76    79.6   22.3   15.3   +23.8  295.8

     26   23 02.79  -05 01.4    2.595   2.620    22.8/ 76    80.2   22.4   15.3   +24.2  296.0

     27   23 04.27  -04 56.0    2.583   2.619    22.6/ 76    80.8   22.4   15.2   +24.6  296.2

     28   23 05.74  -04 50.7    2.571   2.618    22.5/ 77    81.3   22.5   15.2   +24.9  296.5

     29   23 07.21  -04 45.4    2.559   2.617    22.4/ 77    81.9   22.5   15.2   +25.3  296.7

     30   23 08.66  -04 40.2    2.547   2.616    22.2/ 77    82.5   22.6   15.2   +25.7  297.0

     31   23 10.11  -04 35.1    2.535   2.615    22.1/ 77    83.1   22.6   15.2   +26.1  297.3

June  1   23 11.54  -04 30.1    2.524   2.615    21.9/ 77    83.7   22.7   15.2   +26.4  297.6

NAKANO

         **** Don't distribute anyone except personal use only ****

                (C) Copyright 2007 OAA/ComputingSection

write mail from CFAD0::NAKANO on 2007-04-28 05:27:06(JST).

